Weather WX

World > North America > United States > Ohio

Camden, Ohio Regional Weather

Lat: 39.64N, Lon: 84.65W
Wx Zone: OHZ060
Warning FLW WEATHER ALERT - (More Info. Click Here) Warning
Feedback

Camden, OH Regional Weather

Expires:201907161900;;740380
ASUS41 KCLE 161812
RWRCLE
OHIO REGIONAL WEATHER ROUNDUP
NATIONAL WEATHER SERVICE WILMINGTON, OH
200 PM EDT TUE JUL 16 2019

NOTE: "FAIR" INDICATES FEW OR NO CLOUDS BELOW 12,000 FEET WITH NO
SIGNIFICANT WEATHER AND/OR OBSTRUCTIONS TO VISIBILITY.


OHZ042-051>053-060>062-070>072-077>081-161900-
  SOUTHWEST OHIO
  
CITY           SKY/WX    TMP DP  RH WIND       PRES   REMARKS
CINC-COVINGTON PTSUNNY   88  69  53 S18       30.01F HX  92           
CINC-LUNKEN    FAIR      88  73  61 S16G25    30.01F HX  95           
HAMILTON       FAIR      88  72  58 S9        30.01F HX  94           
DAYTON         PTSUNNY   86  71  60 S15       30.03F HX  91           
WRIGHT-PAT AFB FAIR      86  71  60 S18       30.02F HX  90           
DAYTON GENERAL FAIR      88  70  55 S14       30.02F HX  93           
WILMINGTON     FAIR      85  72  65 S10       30.05F HX  91           
$$


SKY/WX - Weather  TMP - Temperature  DP - Dew Point  RH - Relative Humidity
WIND - Wind Direction/Speed PRES - Barometric Pressure VSB - Visibility
WCI - Wind Chill Index E13G22 Wind - East Wind 13 mph/Gusts of 22 mph